• en France
  • Liste des pays
  • À 7 jours
  • Température de l'eau
  • Carte satellitaire
  • Carte météo
  • Widgets météo
  • user-avatar
    Se connecter

    Météo par heure à Zimotki

    Ce jour, 20 Août, Lundi

    Heure Température Précipitation Vent Pression Humidité
    00:00 +23°C° 0 mm 2 m/s 752 mmHg 51%
    01:00 +23°C° 0 mm 2 m/s 752 mmHg 52%
    02:00 +23°C° 0 mm 2 m/s 752 mmHg 56%
    03:00 +21°C° 0 mm 2 m/s 752 mmHg 59%
    04:00 +21°C° 0 mm 2 m/s 752 mmHg 62%
    05:00 +22°C° 0 mm 3 m/s 752 mmHg 63%
    06:00 +24°C° 0 mm 3 m/s 752 mmHg 64%
    07:00 +25°C° 0 mm 3 m/s 752 mmHg 65%
    08:00 +26°C° 0 mm 4 m/s 752 mmHg 58%
    09:00 +28°C° 0 mm 4 m/s 752 mmHg 52%
    10:00 +30°C° 0 mm 5 m/s 752 mmHg 45%
    11:00 +30°C° 0 mm 5 m/s 751 mmHg 44%
    12:00 +30°C° 0 mm 5 m/s 751 mmHg 42%
    13:00 +32°C° 0 mm 6 m/s 751 mmHg 40%
    14:00 +30°C° 0 mm 6 m/s 751 mmHg 43%
    15:00 +29°C° 0 mm 6 m/s 751 mmHg 46%
    16:00 +29°C° 0 mm 6 m/s 751 mmHg 49%
    17:00 +27°C° 0 mm 5 m/s 751 mmHg 54%
    18:00 +26°C° 0 mm 5 m/s 751 mmHg 59%
    19:00 +23°C° 0 mm 4 m/s 751 mmHg 63%
    20:00 +22°C° 0 mm 3 m/s 751 mmHg 67%
    21:00 +21°C° 0 mm 3 m/s 752 mmHg 70%
    22:00 +21°C° 0 mm 3 m/s 752 mmHg 73%
    23:00 +20°C° 0 mm 3 m/s 752 mmHg 76%

    Demain, 21 Août, Mardi

    Heure Température Précipitation Vent Pression Humidité
    00:00 +20°C° 0 mm 3 m/s 753 mmHg 78%
    01:00 +19°C° 0 mm 3 m/s 753 mmHg 81%
    02:00 +19°C° 0 mm 3 m/s 753 mmHg 83%
    03:00 +18°C° 0 mm 3 m/s 753 mmHg 84%
    04:00 +17°C° 0 mm 3 m/s 753 mmHg 86%
    05:00 +18°C° 0 mm 3 m/s 754 mmHg 79%
    06:00 +18°C° 0 mm 3 m/s 754 mmHg 73%
    07:00 +19°C° 0 mm 4 m/s 755 mmHg 67%
    08:00 +20°C° 0 mm 4 m/s 755 mmHg 61%
    09:00 +21°C° 0 mm 4 m/s 755 mmHg 55%
    10:00 +22°C° 0 mm 4 m/s 755 mmHg 49%
    11:00 +23°C° 0 mm 4 m/s 755 mmHg 45%
    12:00 +25°C° 0 mm 4 m/s 755 mmHg 41%
    13:00 +26°C° 0 mm 4 m/s 755 mmHg 37%
    14:00 +26°C° 0 mm 4 m/s 755 mmHg 37%
    15:00 +26°C° 0 mm 3 m/s 755 mmHg 37%
    16:00 +26°C° 0 mm 3 m/s 755 mmHg 37%
    17:00 +24°C° 0 mm 3 m/s 755 mmHg 41%
    18:00 +23°C° 0 mm 2 m/s 755 mmHg 45%
    19:00 +21°C° 0 mm 1 m/s 755 mmHg 50%
    20:00 +21°C° 0 mm 1 m/s 755 mmHg 53%
    21:00 +20°C° 0 mm 1 m/s 756 mmHg 55%
    22:00 +19°C° 0 mm 1 m/s 756 mmHg 58%
    23:00 +17°C° 0 mm 2 m/s 756 mmHg 61%

    Après-demain, 22 Août, Mercredi

    Heure Température Précipitation Vent Pression Humidité
    00:00 +17°C° 0 mm 2 m/s 756 mmHg 64%
    01:00 +16°C° 0 mm 2 m/s 756 mmHg 67%
    02:00 +16°C° 0 mm 2 m/s 756 mmHg 69%
    03:00 +16°C° 0 mm 2 m/s 756 mmHg 71%
    04:00 +15°C° 0 mm 2 m/s 756 mmHg 73%
    05:00 +16°C° 0 mm 3 m/s 757 mmHg 70%
    06:00 +17°C° 0 mm 3 m/s 757 mmHg 68%
    07:00 +18°C° 0 mm 3 m/s 757 mmHg 65%
    08:00 +20°C° 0 mm 3 m/s 757 mmHg 59%
    09:00 +22°C° 0 mm 3 m/s 756 mmHg 53%
    10:00 +25°C° 0 mm 3 m/s 756 mmHg 46%
    11:00 +26°C° 0 mm 3 m/s 756 mmHg 44%
    12:00 +26°C° 0 mm 3 m/s 756 mmHg 41%
    13:00 +27°C° 0 mm 3 m/s 755 mmHg 38%
    14:00 +27°C° 0 mm 3 m/s 755 mmHg 38%
    15:00 +27°C° 0 mm 3 m/s 755 mmHg 38%
    16:00 +28°C° 0 mm 3 m/s 754 mmHg 38%
    17:00 +26°C° 0 mm 3 m/s 754 mmHg 42%
    18:00 +24°C° 0 mm 3 m/s 754 mmHg 47%
    19:00 +22°C° 0 mm 3 m/s 754 mmHg 52%
    20:00 +21°C° 0 mm 3 m/s 754 mmHg 53%
    21:00 +20°C° 0 mm 3 m/s 754 mmHg 55%
    22:00 +20°C° 0 mm 3 m/s 754 mmHg 57%
    23:00 +19°C° 0 mm 3 m/s 754 mmHg 60%

    23 Août, Jeudi

    Heure Température Précipitation Vent Pression Humidité
    00:00 +19°C° 0 mm 3 m/s 754 mmHg 64%
    01:00 +18°C° 0 mm 3 m/s 754 mmHg 67%
    02:00 +18°C° 0 mm 3 m/s 753 mmHg 71%
    03:00 +18°C° 0 mm 3 m/s 753 mmHg 74%
    04:00 +17°C° 0 mm 3 m/s 753 mmHg 77%
    05:00 +18°C° 0 mm 3 m/s 753 mmHg 75%
    06:00 +19°C° 0 mm 3 m/s 753 mmHg 72%
    07:00 +20°C° 0 mm 4 m/s 753 mmHg 69%
    08:00 +22°C° 0 mm 4 m/s 752 mmHg 62%
    09:00 +26°C° 0 mm 4 m/s 752 mmHg 54%
    10:00 +28°C° 0 mm 3 m/s 752 mmHg 47%
    11:00 +29°C° 0 mm 3 m/s 752 mmHg 44%
    12:00 +30°C° 0 mm 3 m/s 751 mmHg 41%
    13:00 +31°C° 0 mm 3 m/s 751 mmHg 38%
    14:00 +31°C° 0 mm 2 m/s 750 mmHg 38%
    15:00 +31°C° 0 mm 2 m/s 750 mmHg 38%
    16:00 +31°C° 0 mm 2 m/s 750 mmHg 38%
    17:00 +30°C° 0,1 mm 2 m/s 749 mmHg 43%
    18:00 +28°C° 0,1 mm 3 m/s 749 mmHg 47%
    19:00 +27°C° 0,1 mm 3 m/s 749 mmHg 51%
    20:00 +25°C° 0,9 mm 3 m/s 749 mmHg 57%
    21:00 +24°C° 0,9 mm 3 m/s 749 mmHg 62%
    22:00 +22°C° 0,9 mm 4 m/s 749 mmHg 67%
    23:00 +22°C° 1 mm 4 m/s 748 mmHg 71%

    24 Août, Vendredi

    Heure Température Précipitation Vent Pression Humidité
    00:00 +22°C° 1 mm 4 m/s 748 mmHg 74%
    01:00 +21°C° 1 mm 3 m/s 748 mmHg 77%
    02:00 +21°C° 0,3 mm 3 m/s 748 mmHg 78%
    03:00 +21°C° 0,3 mm 3 m/s 747 mmHg 79%
    04:00 +21°C° 0,3 mm 3 m/s 747 mmHg 79%
    05:00 +22°C° 0,3 mm 4 m/s 747 mmHg 76%
    06:00 +23°C° 0,3 mm 4 m/s 747 mmHg 72%
    07:00 +25°C° 0,3 mm 4 m/s 746 mmHg 68%
    08:00 +26°C° 0 mm 4 m/s 746 mmHg 62%
    09:00 +28°C° 0 mm 4 m/s 746 mmHg 56%
    10:00 +30°C° 0 mm 4 m/s 746 mmHg 50%
    11:00 +32°C° 0 mm 5 m/s 746 mmHg 47%
    12:00 +33°C° 0 mm 5 m/s 745 mmHg 44%
    13:00 +34°C° 0 mm 5 m/s 745 mmHg 40%
    14:00 +33°C° 0 mm 4 m/s 745 mmHg 42%
    15:00 +33°C° 0 mm 4 m/s 745 mmHg 45%
    16:00 +31°C° 0 mm 3 m/s 744 mmHg 47%
    17:00 +30°C° 0,1 mm 3 m/s 744 mmHg 50%
    18:00 +29°C° 0,1 mm 3 m/s 744 mmHg 53%
    19:00 +28°C° 0,1 mm 2 m/s 744 mmHg 56%
    20:00 +27°C° 0,8 mm 3 m/s 744 mmHg 60%
    21:00 +26°C° 0,8 mm 3 m/s 744 mmHg 64%
    22:00 +25°C° 0,8 mm 3 m/s 744 mmHg 68%
    23:00 +24°C° 1,2 mm 3 m/s 744 mmHg 72%

    25 Août, Samedi

    Heure Température Précipitation Vent Pression Humidité
    00:00 +22°C° 1,2 mm 3 m/s 744 mmHg 77%
    01:00 +23°C° 1,2 mm 2 m/s 744 mmHg 82%
    02:00 +21°C° 0,7 mm 3 m/s 744 mmHg 84%
    03:00 +20°C° 0,7 mm 3 m/s 744 mmHg 87%
    04:00 +20°C° 0,7 mm 3 m/s 744 mmHg 89%
    05:00 +20°C° 0,8 mm 4 m/s 744 mmHg 89%
    06:00 +20°C° 0,8 mm 4 m/s 745 mmHg 89%
    07:00 +20°C° 0,8 mm 4 m/s 745 mmHg 89%
    08:00 +19°C° 0,1 mm 5 m/s 745 mmHg 87%
    09:00 +19°C° 0,1 mm 5 m/s 746 mmHg 86%
    10:00 +17°C° 0,1 mm 6 m/s 746 mmHg 85%
    11:00 +19°C° 0 mm 6 m/s 746 mmHg 81%
    12:00 +19°C° 0 mm 6 m/s 746 mmHg 78%
    13:00 +20°C° 0 mm 6 m/s 747 mmHg 75%
    14:00 +19°C° 0 mm 6 m/s 747 mmHg 76%
    15:00 +19°C° 0 mm 6 m/s 747 mmHg 78%
    16:00 +17°C° 0 mm 5 m/s 747 mmHg 79%
    17:00 +17°C° 0 mm 5 m/s 747 mmHg 79%
    18:00 +16°C° 0 mm 5 m/s 748 mmHg 80%
    19:00 +16°C° 0 mm 5 m/s 748 mmHg 81%
    20:00 +15°C° 0 mm 5 m/s 748 mmHg 80%
    21:00 +15°C° 0 mm 5 m/s 748 mmHg 79%
    22:00 +15°C° 0 mm 5 m/s 748 mmHg 79%
    23:00 +15°C° 0,7 mm 5 m/s 748 mmHg 81%
    Voir plus